Total_Precipitation_Accumulation
0.00 0.00 0.00 0.00 0.00 0.01 0.05 0.10 0.13 0.16 0.22 0.22 0.20 0.17 0.16 0.18 0.20 0.18 0.21 0.27 0.43 0.72 0.67 0.43 0.34 0.44 0.61 0.73 0.79 0.79 0.52 0.17 0.02 0.00 0.01 0.01 0.00 0.01 0.04 0.09 0.12 0.11 0.04
0.00 0.00 0.00 0.00 0.00 0.00 0.00 0.01 0.07 0.14 0.14 0.16 0.19 0.18 0.16 0.13 0.23 0.32 0.23 0.22 0.27 0.33 0.72 0.94 0.67 0.44 0.34 0.32 0.38 0.60 0.70 0.59 0.28 0.04 0.01 0.03 0.04 0.04 0.02 0.07 0.08 0.08 0.09
0.00 0.00 0.00 0.00 0.00 0.00 0.00 0.00 0.00 0.05 0.13 0.13 0.16 0.22 0.25 0.26 0.20 0.30 0.39 0.24 0.20 0.21 0.28 0.43 0.76 0.77 0.58 0.40 0.30 0.29 0.38 0.40 0.35 0.19 0.05 0.00 0.01 0.02 0.01 0.02 0.07 0.05 0.05
0.00 0.00 0.00 0.00 0.00 0.00 0.00 0.00 0.00 0.01 0.08 0.21 0.19 0.22 0.27 0.21 0.18 0.16 0.21 0.40 0.35 0.20 0.16 0.17 0.36 0.58 0.72 0.60 0.46 0.39 0.36 0.43 0.37 0.24 0.16 0.01 0.00 0.00 0.00 0.00 0.03 0.08 0.04
0.00 0.00 0.00 0.00 0.00 0.00 0.00 0.00 0.00 0.00 0.02 0.11 0.30 0.20 0.17 0.18 0.18 0.18 0.20 0.17 0.40 0.56 0.37 0.20 0.21 0.34 0.52 0.57 0.53 0.48 0.47 0.48 0.47 0.42 0.21 0.11 0.02 0.00 0.00 0.00 0.00 0.05 0.05
0.02 0.01 0.00 0.00 0.00 0.00 0.00 0.00 0.00 0.00 0.00 0.02 0.12 0.25 0.25 0.21 0.20 0.19 0.22 0.19 0.18 0.27 0.50 0.54 0.34 0.24 0.33 0.45 0.61 0.73 0.61 0.44 0.49 0.50 0.45 0.24 0.09 0.01 0.00 0.00 0.00 0.00 0.01
0.04 0.03 0.02 0.01 0.00 0.00 0.00 0.00 0.00 0.00 0.00 0.01 0.02 0.09 0.22 0.25 0.23 0.16 0.20 0.28 0.26 0.24 0.20 0.29 0.40 0.38 0.28 0.27 0.33 0.45 0.67 0.69 0.52 0.40 0.41 0.38 0.20 0.08 0.01 0.00 0.00 0.00 0.00
0.07 0.07 0.06 0.04 0.02 0.01 0.00 0.00 0.00 0.00 0.00 0.00 0.02 0.04 0.07 0.20 0.29 0.23 0.15 0.16 0.23 0.29 0.32 0.29 0.23 0.28 0.35 0.35 0.33 0.37 0.32 0.31 0.48 0.53 0.44 0.34 0.24 0.13 0.07 0.01 0.00 0.00 0.00
0.09 0.10 0.09 0.08 0.06 0.04 0.01 0.01 0.00 0.00 0.00 0.01 0.02 0.03 0.06 0.08 0.16 0.36 0.33 0.19 0.13 0.14 0.31 0.47 0.38 0.28 0.23 0.34 0.44 0.44 0.36 0.34 0.31 0.29 0.38 0.41 0.29 0.18 0.12 0.04 0.01 0.00 0.00
0.08 0.10 0.12 0.13 0.10 0.08 0.06 0.03 0.02 0.01 0.01 0.02 0.02 0.03 0.05 0.08 0.09 0.17 0.38 0.48 0.22 0.14 0.15 0.22 0.46 0.49 0.39 0.27 0.21 0.23 0.33 0.47 0.39 0.32 0.34 0.35 0.29 0.19 0.14 0.10 0.03 0.00 0.00
0.10 0.12 0.12 0.15 0.17 0.13 0.10 0.08 0.06 0.04 0.03 0.03 0.03 0.03 0.05 0.06 0.08 0.11 0.22 0.35 0.59 0.35 0.20 0.19 0.20 0.31 0.45 0.38 0.34 0.21 0.14 0.18 0.30 0.37 0.37 0.32 0.29 0.35 0.25 0.13 0.08 0.01 0.00
0.13 0.14 0.14 0.13 0.16 0.20 0.17 0.14 0.12 0.09 0.06 0.05 0.05 0.05 0.05 0.06 0.09 0.09 0.12 0.30 0.32 0.56 0.46 0.30 0.27 0.26 0.24 0.34 0.35 0.33 0.27 0.19 0.14 0.16 0.25 0.31 0.32 0.35 0.33 0.33 0.16 0.08 0.02
0.11 0.13 0.14 0.14 0.16 0.22 0.28 0.23 0.18 0.18 0.13 0.10 0.10 0.08 0.08 0.08 0.10 0.14 0.13 0.16 0.36 0.32 0.59 0.52 0.35 0.37 0.30 0.22 0.23 0.28 0.31 0.31 0.22 0.15 0.11 0.12 0.22 0.34 0.32 0.26 0.22 0.16 0.10
0.13 0.15 0.15 0.16 0.18 0.20 0.31 0.37 0.31 0.23 0.23 0.19 0.13 0.12 0.11 0.10 0.10 0.12 0.18 0.13 0.16 0.39 0.38 0.56 0.42 0.28 0.41 0.39 0.25 0.20 0.24 0.27 0.32 0.27 0.20 0.13 0.10 0.12 0.16 0.24 0.20 0.15 0.20
0.11 0.14 0.18 0.19 0.20 0.20 0.21 0.33 0.40 0.39 0.29 0.30 0.23 0.16 0.14 0.12 0.13 0.15 0.15 0.18 0.14 0.14 0.38 0.47 0.53 0.34 0.21 0.27 0.39 0.34 0.24 0.24 0.22 0.26 0.27 0.24 0.21 0.16 0.12 0.15 0.16 0.17 0.19
0.10 0.14 0.15 0.17 0.19 0.23 0.25 0.28 0.38 0.44 0.48 0.37 0.38 0.30 0.21 0.18 0.15 0.16 0.16 0.20 0.21 0.19 0.16 0.35 0.51 0.54 0.31 0.16 0.13 0.20 0.35 0.30 0.31 0.27 0.18 0.22 0.25 0.24 0.31 0.22 0.18 0.18 0.18
0.09 0.13 0.17 0.21 0.24 0.27 0.34 0.34 0.40 0.45 0.49 0.54 0.43 0.47 0.37 0.28 0.26 0.17 0.20 0.20 0.26 0.26 0.23 0.17 0.32 0.55 0.53 0.38 0.18 0.13 0.12 0.24 0.31 0.23 0.27 0.25 0.16 0.19 0.21 0.37 0.34 0.27 0.21
0.07 0.08 0.13 0.17 0.20 0.23 0.26 0.30 0.33 0.41 0.47 0.54 0.54 0.48 0.58 0.44 0.34 0.37 0.23 0.28 0.26 0.32 0.29 0.19 0.15 0.23 0.41 0.49 0.42 0.32 0.24 0.15 0.11 0.18 0.18 0.18 0.22 0.16 0.13 0.19 0.42 0.43 0.29
0.11 0.13 0.16 0.19 0.21 0.24 0.25 0.28 0.28 0.33 0.38 0.42 0.55 0.58 0.62 0.76 0.54 0.51 0.51 0.35 0.44 0.40 0.34 0.34 0.25 0.18 0.17 0.29 0.44 0.51 0.52 0.45 0.20 0.08 0.07 0.15 0.15 0.16 0.19 0.18 0.26 0.33 0.37
0.07 0.11 0.11 0.10 0.11 0.16 0.22 0.25 0.28 0.30 0.34 0.45 0.57 0.68 0.71 0.81 0.96 0.77 0.83 0.72 0.50 0.58 0.53 0.41 0.48 0.46 0.22 0.21 0.20 0.45 0.67 0.71 0.50 0.27 0.10 0.11 0.09 0.19 0.16 0.17 0.19 0.29 0.24
0.07 0.08 0.07 0.11 0.15 0.14 0.18 0.21 0.23 0.29 0.42 0.48 0.51 0.56 0.65 0.75 0.94 1.11 0.94 1.17 0.91 0.56 0.62 0.67 0.51 0.54 0.47 0.30 0.31 0.28 0.43 0.58 0.68 0.52 0.32 0.16 0.08 0.07 0.10 0.14 0.16 0.15 0.12
0.02 0.03 0.05 0.06 0.09 0.11 0.13 0.16 0.21 0.29 0.31 0.38 0.45 0.48 0.58 0.66 0.74 0.95 1.03 1.06 1.28 1.02 0.72 0.77 0.71 0.62 0.61 0.50 0.43 0.39 0.32 0.41 0.48 0.66 0.50 0.22 0.16 0.06 0.05 0.08 0.12 0.20 0.25
0.01 0.02 0.04 0.05 0.05 0.07 0.12 0.14 0.18 0.22 0.24 0.27 0.36 0.43 0.48 0.56 0.65 0.73 0.90 0.94 1.09 1.25 1.13 0.95 0.99 0.80 0.63 0.70 0.62 0.57 0.49 0.38 0.33 0.38 0.51 0.66 0.36 0.16 0.10 0.07 0.12 0.16 0.18
0.00 0.00 0.01 0.02 0.03 0.04 0.06 0.10 0.11 0.15 0.19 0.23 0.29 0.34 0.43 0.47 0.48 0.54 0.65 0.79 0.96 1.15 1.27 1.18 1.16 1.14 0.91 0.76 0.88 0.74 0.71 0.56 0.39 0.38 0.41 0.53 0.83 0.74 0.42 0.23 0.17 0.10 0.14
0.00 0.00 0.00 0.00 0.01 0.02 0.02 0.02 0.02 0.05 0.10 0.16 0.21 0.25 0.31 0.40 0.44 0.51 0.79 1.01 1.15 1.48 1.62 1.69 1.50 1.46 1.40 1.47 1.35 1.21 1.08 1.08 0.93 0.71 0.45 0.54 0.73 1.11 1.00 0.74 0.42 0.29 0.27
0.00 0.00 0.00 0.00 0.00 0.00 0.00 0.00 0.00 0.02 0.03 0.06 0.14 0.19 0.25 0.29 0.35 0.40 0.36 0.47 0.78 0.84 1.05 1.26 1.41 1.43 1.51 1.41 1.28 1.21 1.23 1.35 1.48 1.35 1.12 0.88 0.78 0.87 1.20 1.11 0.97 0.72 0.60